SEY262 FSIA-VABB

Flight info

Callsign SEY262
Flight time N/A
Altitude 37000
Route PAOLO1C PAOLO DCT PRA UL441 CLAVA B459 GUNDI KETOR2A
Aircraft B77W/H-SDE1E2E3FGHIJ2J3J4J5M1RWXY/LB1D1

Departure

Time 2026-04-20 18:14
Airport Seychelles International Airport (FSIA)

Arrival

Time N/A
Airport Chhatrapati Shivaji Maharaj International Airport (VABB)
Time Latitude Longitude Altitude Speed Heading
2026-04-20 16:27 -4.67076 55.51229 25 ft 0 kts 215°
2026-04-20 17:34 -4.67061 55.51240 31 ft 4 kts 222°
2026-04-20 17:34 -4.67044 55.51258 31 ft 4 kts 244°
2026-04-20 17:34 -4.67039 55.51271 29 ft 4 kts 267°
2026-04-20 17:35 -4.67039 55.51283 31 ft 4 kts 304°
2026-04-20 17:35 -4.67027 55.51264 29 ft 0 kts 304°
2026-04-20 17:39 -4.67026 55.51263 25 ft 1 kts 304°
2026-04-20 17:40 -4.67022 55.51258 28 ft 2 kts 304°
2026-04-20 17:40 -4.67015 55.51247 28 ft 2 kts 304°
2026-04-20 17:40 -4.67003 55.51229 28 ft 3 kts 305°
2026-04-20 17:40 -4.66983 55.51211 28 ft 4 kts 323°
2026-04-20 17:41 -4.66954 55.51203 28 ft 5 kts
2026-04-20 17:41 -4.66920 55.51207 30 ft 5 kts
2026-04-20 17:41 -4.66880 55.51188 30 ft 6 kts 301°
2026-04-20 17:41 -4.66862 55.51151 30 ft 6 kts 298°
2026-04-20 17:42 -4.66847 55.51127 30 ft 6 kts 302°
2026-04-20 17:42 -4.66823 55.51090 28 ft 6 kts 303°
2026-04-20 17:42 -4.66809 55.51068 28 ft 0 kts 303°
2026-04-20 18:05 -4.66794 55.51046 28 ft 6 kts 306°
2026-04-20 18:05 -4.66759 55.51024 29 ft 8 kts 351°
2026-04-20 18:05 -4.66706 55.51054 27 ft 9 kts 40°
2026-04-20 18:06 -4.66703 55.51108 27 ft 9 kts 117°
2026-04-20 18:06 -4.66735 55.51159 27 ft 8 kts 125°
2026-04-20 18:06 -4.66742 55.51169 27 ft 0 kts 125°
2026-04-20 18:13 -4.66756 55.51189 27 ft 17 kts 125°
2026-04-20 18:14 -4.66960 55.51485 26 ft 92 kts 124°
2026-04-20 18:14 -4.67467 55.52223 27 ft 162 kts 124°
2026-04-20 18:14 -4.68191 55.53274 302 ft 189 kts 124°
2026-04-20 18:14 -4.68902 55.54317 1227 ft 181 kts 125°
2026-04-20 18:15 -4.69565 55.55440 1433 ft 191 kts 109°
2026-04-20 18:15 -4.69579 55.56716 1567 ft 187 kts 67°
2026-04-20 18:15 -4.68741 55.57748 1825 ft 207 kts 39°
2026-04-20 18:15 -4.67470 55.58633 1913 ft 242 kts 35°
2026-04-20 18:16 -4.66051 55.59650 1709 ft 251 kts 35°
2026-04-20 18:16 -4.64425 55.60278 1612 ft 259 kts
2026-04-20 18:16 -4.62628 55.60305 1576 ft 260 kts
2026-04-20 18:16 -4.60800 55.60352 2038 ft 265 kts
2026-04-20 18:17 -4.58961 55.60410 3019 ft 265 kts
2026-04-20 18:17 -4.57108 55.60469 3912 ft 268 kts
2026-04-20 18:17 -4.55223 55.60531 4752 ft 273 kts
2026-04-20 18:17 -4.53313 55.60594 5618 ft 276 kts
2026-04-20 18:18 -4.51380 55.60658 6462 ft 279 kts
2026-04-20 18:18 -4.49495 55.60941 7078 ft 282 kts 22°
2026-04-20 18:18 -4.47731 55.61829 7682 ft 287 kts 28°
2026-04-20 18:18 -4.45960 55.62777 8500 ft 289 kts 28°
2026-04-20 18:19 -4.44178 55.63718 9331 ft 291 kts 28°
2026-04-20 18:19 -4.42374 55.64663 10078 ft 295 kts 28°
2026-04-20 18:19 -4.40522 55.65628 10621 ft 309 kts 27°
2026-04-20 18:19 -4.38525 55.66663 10815 ft 335 kts 27°
2026-04-20 18:20 -4.36392 55.67765 11007 ft 361 kts 27°
2026-04-20 18:20 -4.34096 55.68949 11444 ft 377 kts 27°
2026-04-20 18:20 -4.31731 55.70169 12184 ft 385 kts 28°
2026-04-20 18:20 -4.29439 55.71530 13069 ft 388 kts 34°
2026-04-20 18:21 -4.27220 55.73093 13961 ft 392 kts 35°
2026-04-20 18:21 -4.24978 55.74697 14646 ft 399 kts 36°
2026-04-20 18:21 -4.22727 55.76313 15332 ft 405 kts 36°
2026-04-20 18:21 -4.20413 55.77970 16047 ft 411 kts 36°
2026-04-20 18:22 -4.18070 55.79645 16773 ft 416 kts 36°
2026-04-20 18:22 -4.15695 55.81338 17477 ft 421 kts 36°
2026-04-20 18:22 -4.13308 55.83036 18151 ft 427 kts 36°
2026-04-20 18:22 -4.10872 55.84767 18746 ft 431 kts 36°
2026-04-20 18:23 -4.08408 55.86515 19377 ft 435 kts 36°
2026-04-20 18:23 -4.05960 55.88252 20009 ft 438 kts 36°
2026-04-20 18:23 -4.04276 55.89446 20421 ft 441 kts 36°
2026-04-20 18:23 -4.02185 55.90929 20905 ft 444 kts 35°
2026-04-20 18:24 -3.99646 55.92729 21472 ft 449 kts 35°
2026-04-20 18:24 -3.97119 55.94521 22032 ft 453 kts 35°
2026-04-20 18:24 -3.94532 55.96355 22606 ft 456 kts 35°
2026-04-20 18:24 -3.91926 55.98203 23172 ft 460 kts 35°
2026-04-20 18:25 -3.90193 55.99431 23523 ft 462 kts 35°
2026-04-20 18:25 -3.86690 56.01915 24119 ft 467 kts 34°
2026-04-20 18:25 -3.84903 56.03182 24443 ft 468 kts 34°
2026-04-20 18:25 -3.81363 56.05692 25100 ft 470 kts 34°
2026-04-20 18:26 -3.78673 56.07598 25580 ft 473 kts 34°
2026-04-20 18:26 -3.76019 56.09479 26014 ft 475 kts 34°
2026-04-20 18:26 -3.73306 56.11401 26459 ft 478 kts 34°
2026-04-20 18:26 -3.70610 56.13312 26895 ft 480 kts 34°
2026-04-20 18:27 -3.67876 56.15249 27317 ft 483 kts 34°
2026-04-20 18:27 -3.65118 56.17204 27734 ft 485 kts 34°
2026-04-20 18:27 -3.62341 56.19171 28136 ft 488 kts 34°
2026-04-20 18:27 -3.59601 56.21112 28537 ft 490 kts 34°
2026-04-20 18:28 -3.57747 56.22425 28791 ft 492 kts 34°
2026-04-20 18:28 -3.53989 56.25087 29274 ft 495 kts 34°
2026-04-20 18:28 -3.51205 56.27059 29612 ft 497 kts 33°
2026-04-20 18:28 -3.48372 56.29065 29930 ft 500 kts 33°
2026-04-20 18:29 -3.45525 56.31082 30253 ft 500 kts 33°
2026-04-20 18:29 -3.42687 56.33092 30694 ft 498 kts 33°
2026-04-20 18:29 -3.39894 56.35070 31141 ft 495 kts 33°
2026-04-20 18:29 -3.37084 56.37061 31616 ft 493 kts 33°
2026-04-20 18:30 -3.35231 56.38373 31917 ft 492 kts 33°
2026-04-20 18:30 -3.31501 56.41014 32498 ft 489 kts 33°
2026-04-20 18:30 -3.29653 56.42322 32806 ft 488 kts 33°
2026-04-20 18:30 -3.25990 56.44915 33399 ft 486 kts 33°
2026-04-20 18:31 -3.23220 56.46875 33857 ft 484 kts 33°
2026-04-20 18:31 -3.21408 56.48157 34110 ft 483 kts 33°
2026-04-20 18:31 -3.17761 56.50738 34532 ft 483 kts 33°
2026-04-20 18:31 -3.15013 56.52683 34838 ft 483 kts 33°
2026-04-20 18:32 -3.13195 56.53969 35067 ft 482 kts 33°
2026-04-20 18:32 -3.10451 56.55910 35397 ft 482 kts 33°
2026-04-20 18:32 -3.07718 56.57843 35714 ft 481 kts 33°
2026-04-20 18:32 -3.04982 56.59779 36019 ft 481 kts 33°
2026-04-20 18:33 -3.02279 56.61692 36316 ft 480 kts 33°
2026-04-20 18:33 -2.99547 56.63624 36622 ft 480 kts 33°
2026-04-20 18:33 -2.96821 56.65552 36926 ft 479 kts 33°
2026-04-20 18:33 -2.94083 56.67488 37009 ft 483 kts 33°
2026-04-20 18:34 -2.88616 56.71354 37060 ft 483 kts 33°
2026-04-20 18:34 -2.83169 56.75208 37091 ft 477 kts 33°
2026-04-20 18:35 -2.76875 56.79658 37080 ft 476 kts 33°
2026-04-20 18:35 -2.72388 56.82829 37087 ft 476 kts 33°
2026-04-20 18:36 -2.66986 56.86648 37079 ft 476 kts 33°
2026-04-20 18:36 -2.61569 56.90476 37082 ft 477 kts 33°
2026-04-20 18:37 -2.56145 56.94310 37087 ft 478 kts 33°
2026-04-20 18:37 -2.50728 56.98137 37086 ft 479 kts 33°
2026-04-20 18:38 -2.45280 57.01987 37087 ft 479 kts 33°
2026-04-20 18:38 -2.39865 57.05813 37082 ft 480 kts 33°
2026-04-20 18:39 -2.34420 57.09660 37085 ft 480 kts 33°
2026-04-20 18:39 -2.28968 57.13511 37069 ft 479 kts 33°
2026-04-20 18:40 -2.23529 57.17353 37082 ft 479 kts 33°
2026-04-20 18:40 -2.18128 57.21167 37080 ft 478 kts 33°
2026-04-20 18:41 -2.12706 57.24997 37084 ft 477 kts 33°
2026-04-20 18:41 -2.07286 57.28824 37089 ft 477 kts 33°
2026-04-20 18:42 -2.01869 57.32648 37087 ft 476 kts 33°
2026-04-20 18:42 -1.96456 57.36471 37070 ft 476 kts 33°
2026-04-20 18:43 -1.91057 57.40282 37086 ft 475 kts 33°
2026-04-20 18:43 -1.87926 57.42492 37068 ft 475 kts 33°
2026-04-20 18:44 -1.82883 57.46053 37088 ft 475 kts 33°
2026-04-20 18:44 -1.77520 57.49838 37086 ft 475 kts 33°
2026-04-20 18:45 -1.72107 57.53658 37071 ft 475 kts 33°
2026-04-20 18:45 -1.66700 57.57475 37083 ft 475 kts 33°
2026-04-20 18:46 -1.61335 57.61262 37086 ft 475 kts 34°
2026-04-20 18:46 -1.55941 57.65068 37088 ft 475 kts 33°
2026-04-20 18:47 -1.50542 57.68877 37073 ft 475 kts 34°
2026-04-20 18:47 -1.45154 57.72679 37067 ft 474 kts 34°
2026-04-20 18:48 -1.39804 57.76456 37083 ft 474 kts 34°
2026-04-20 18:48 -1.34413 57.80262 37081 ft 474 kts 34°
2026-04-20 18:49 -1.29058 57.84041 37086 ft 474 kts 34°
2026-04-20 18:49 -1.23660 57.87851 37070 ft 473 kts 34°
2026-04-20 18:50 -1.18313 57.91625 37070 ft 473 kts 34°
2026-04-20 18:50 -1.12921 57.95430 37070 ft 473 kts 34°
2026-04-20 18:51 -1.07548 57.99222 37087 ft 473 kts 34°
2026-04-20 18:51 -1.02171 58.03016 37085 ft 473 kts 34°
2026-04-20 18:52 -0.96834 58.06782 37071 ft 473 kts 34°
2026-04-20 18:52 -0.91460 58.10574 37070 ft 473 kts 34°
2026-04-20 18:53 -0.86090 58.14363 37069 ft 473 kts 34°
2026-04-20 18:53 -0.82859 58.16643 37087 ft 473 kts 34°
2026-04-20 18:54 -0.78094 58.20005 37071 ft 472 kts 34°
2026-04-20 18:54 -0.72728 58.23791 37069 ft 472 kts 34°
2026-04-20 18:55 -0.67352 58.27583 37087 ft 472 kts 34°
2026-04-20 18:55 -0.62018 58.31346 37076 ft 473 kts 34°
2026-04-20 18:56 -0.56652 58.35132 37084 ft 473 kts 34°
2026-04-20 18:56 -0.51279 58.38922 37071 ft 473 kts 34°
2026-04-20 18:57 -0.45904 58.42714 37070 ft 473 kts 34°
2026-04-20 18:57 -0.40531 58.46504 37071 ft 473 kts 34°
2026-04-20 18:58 -0.35184 58.50276 37088 ft 473 kts 34°
2026-04-20 18:58 -0.29796 58.54076 37090 ft 473 kts 34°
2026-04-20 18:59 -0.24448 58.57849 37070 ft 473 kts 34°
2026-04-20 18:59 -0.19069 58.61643 37070 ft 473 kts 34°
2026-04-20 19:00 -0.13729 58.65410 37066 ft 473 kts 34°
2026-04-20 19:00 -0.08343 58.69209 37088 ft 473 kts 34°
2026-04-20 19:01 -0.02991 58.72984 37091 ft 473 kts 34°
2026-04-20 19:01 0.02395 58.76783 37085 ft 473 kts 34°
2026-04-20 19:02 0.07752 58.80562 37068 ft 473 kts 34°
2026-04-20 19:02 0.13111 58.84342 37068 ft 473 kts 34°
2026-04-20 19:03 0.18499 58.88142 37069 ft 473 kts 34°
2026-04-20 19:03 0.22810 58.91183 37073 ft 473 kts 34°
2026-04-20 19:04 0.27945 58.94806 37072 ft 474 kts 34°
2026-04-20 19:04 0.33300 58.98583 37070 ft 474 kts 34°
2026-04-20 19:05 0.38693 59.02387 37075 ft 474 kts 34°
2026-04-20 19:05 0.44054 59.06169 37072 ft 474 kts 34°
2026-04-20 19:06 0.49456 59.09980 37068 ft 474 kts 34°
2026-04-20 19:06 0.54820 59.13764 37068 ft 474 kts 34°
2026-04-20 19:07 0.60210 59.17567 37083 ft 474 kts 34°
2026-04-20 19:07 0.65615 59.21379 37071 ft 474 kts 34°
2026-04-20 19:08 0.73685 59.27073 37070 ft 475 kts 33°
2026-04-20 19:09 0.79049 59.30857 37070 ft 475 kts 33°
2026-04-20 19:09 0.84434 59.34656 37073 ft 475 kts 33°
2026-04-20 19:10 0.89846 59.38475 37076 ft 475 kts 33°
2026-04-20 19:10 0.95219 59.42266 37068 ft 475 kts 33°
2026-04-20 19:11 1.00633 59.46087 37074 ft 475 kts 33°
2026-04-20 19:11 1.06020 59.49888 37073 ft 476 kts 33°
2026-04-20 19:12 1.11429 59.53705 37076 ft 476 kts 33°
2026-04-20 19:12 1.16812 59.57504 37074 ft 476 kts 33°
2026-04-20 19:13 1.22204 59.61310 37073 ft 476 kts 33°
2026-04-20 19:13 1.27636 59.65143 37075 ft 476 kts 33°
2026-04-20 19:14 1.33020 59.68944 37070 ft 476 kts 33°
2026-04-20 19:14 1.38440 59.72769 37072 ft 476 kts 33°
2026-04-20 19:15 1.43823 59.76570 37070 ft 477 kts 33°
2026-04-20 19:15 1.49247 59.80399 37072 ft 477 kts 33°
2026-04-20 19:16 1.54643 59.84208 37072 ft 477 kts 33°
2026-04-20 19:16 1.60077 59.88046 37074 ft 477 kts 33°
2026-04-20 19:17 1.65468 59.91853 37071 ft 477 kts 33°
2026-04-20 19:17 1.70896 59.95687 37067 ft 477 kts 33°
2026-04-20 19:18 1.76291 59.99497 37070 ft 477 kts 33°
2026-04-20 19:18 1.81707 60.03355 37068 ft 477 kts 34°
2026-04-20 19:19 1.87065 60.07210 37068 ft 477 kts 34°
2026-04-20 19:19 1.92452 60.11087 37068 ft 476 kts 34°
2026-04-20 19:20 1.97808 60.14937 37069 ft 477 kts 34°
2026-04-20 19:20 2.03194 60.18806 37068 ft 477 kts 34°
2026-04-20 19:21 2.08562 60.22662 37067 ft 477 kts 34°
2026-04-20 19:21 2.13927 60.26516 37067 ft 477 kts 34°
2026-04-20 19:22 2.19336 60.30403 37068 ft 477 kts 33°
2026-04-20 19:22 2.24699 60.34256 37065 ft 477 kts 33°
2026-04-20 19:23 2.30070 60.38116 37067 ft 477 kts 33°
2026-04-20 19:23 2.35465 60.41994 37067 ft 477 kts 33°
2026-04-20 19:24 2.40861 60.45872 37066 ft 477 kts 33°
2026-04-20 19:24 2.46231 60.49732 37065 ft 477 kts 33°
2026-04-20 19:25 2.51609 60.53598 37065 ft 477 kts 33°
2026-04-20 19:25 2.57012 60.57483 37065 ft 477 kts 33°
2026-04-20 19:26 2.62382 60.61344 37066 ft 477 kts 33°
2026-04-20 19:26 2.67745 60.65201 37066 ft 477 kts 33°
2026-04-20 19:27 2.73150 60.69088 37066 ft 477 kts 33°
2026-04-20 19:27 2.78512 60.72946 37065 ft 477 kts 33°
2026-04-20 19:28 2.83879 60.76807 37066 ft 477 kts 33°
2026-04-20 19:28 2.89277 60.80690 37066 ft 477 kts 33°
2026-04-20 19:29 2.94670 60.84571 37066 ft 477 kts 33°
2026-04-20 19:29 3.00041 60.88436 37064 ft 477 kts 33°
2026-04-20 19:30 3.05430 60.92315 37064 ft 477 kts 33°
2026-04-20 19:30 3.10802 60.96182 37062 ft 478 kts 33°
2026-04-20 19:31 3.16203 61.00070 37064 ft 478 kts 33°
2026-04-20 19:31 3.21590 61.03948 37067 ft 478 kts 33°
2026-04-20 19:32 3.26962 61.07817 37066 ft 478 kts 33°
2026-04-20 19:32 3.32368 61.11710 37065 ft 479 kts 33°
2026-04-20 19:33 3.37781 61.15609 37066 ft 479 kts 33°
2026-04-20 19:33 3.43168 61.19490 37067 ft 479 kts 33°
2026-04-20 19:34 3.48552 61.23370 37062 ft 479 kts 33°
2026-04-20 19:34 3.53973 61.27276 37066 ft 479 kts 33°
2026-04-20 19:35 3.59391 61.31180 37064 ft 479 kts 33°
2026-04-20 19:35 3.64775 61.35062 37062 ft 479 kts 33°
2026-04-20 19:36 3.70170 61.38951 37064 ft 479 kts 33°
2026-04-20 19:36 3.75594 61.42862 37059 ft 479 kts 33°
2026-04-20 19:37 3.80985 61.46750 37061 ft 479 kts 33°
2026-04-20 19:37 3.86397 61.50654 37064 ft 479 kts 33°
2026-04-20 19:38 3.91794 61.54547 37063 ft 479 kts 33°
2026-04-20 19:38 3.97200 61.58447 37062 ft 479 kts 33°
2026-04-20 19:39 4.02572 61.62324 37063 ft 479 kts 33°
2026-04-20 19:39 4.07981 61.66229 37067 ft 478 kts 33°
2026-04-20 19:40 4.13352 61.70106 37067 ft 478 kts 33°
2026-04-20 19:40 4.18756 61.74008 37062 ft 478 kts 33°
2026-04-20 19:41 4.24124 61.77885 37061 ft 478 kts 33°
2026-04-20 19:41 4.29493 61.81764 37066 ft 477 kts 33°
2026-04-20 19:42 4.34880 61.85656 37065 ft 477 kts 33°
2026-04-20 19:42 4.40199 61.89588 37062 ft 477 kts 34°
2026-04-20 19:43 4.45494 61.93565 37064 ft 477 kts 34°
2026-04-20 19:43 4.50814 61.97556 37063 ft 477 kts 34°
2026-04-20 19:44 4.56097 62.01507 37061 ft 476 kts 34°
2026-04-20 19:44 4.61422 62.05487 37064 ft 476 kts 34°
2026-04-20 19:45 4.66699 62.09431 37061 ft 476 kts 34°
2026-04-20 19:45 4.72019 62.13409 37063 ft 475 kts 34°
2026-04-20 19:46 4.77294 62.17355 37061 ft 475 kts 34°
2026-04-20 19:46 4.82606 62.21329 37061 ft 475 kts 34°
2026-04-20 19:47 4.87879 62.25274 37059 ft 475 kts 34°
2026-04-20 19:47 4.93179 62.29242 37059 ft 475 kts 34°
2026-04-20 19:48 4.98449 62.33187 37060 ft 475 kts 34°
2026-04-20 19:48 5.03800 62.37115 37064 ft 474 kts 32°
2026-04-20 19:49 5.09184 62.40905 37064 ft 474 kts 32°
2026-04-20 19:49 5.14594 62.44700 37060 ft 474 kts 32°
2026-04-20 19:50 5.19971 62.48495 37061 ft 474 kts 32°
2026-04-20 19:50 5.25334 62.52294 37064 ft 475 kts 32°
2026-04-20 19:51 5.30742 62.56128 37064 ft 475 kts 32°
2026-04-20 19:51 5.36108 62.59934 37065 ft 475 kts 32°
2026-04-20 19:52 5.41490 62.63750 37063 ft 475 kts 32°
2026-04-20 19:52 5.46896 62.67585 37062 ft 475 kts 32°
2026-04-20 19:53 5.52298 62.71416 37062 ft 475 kts 32°
2026-04-20 19:53 5.57673 62.75230 37060 ft 475 kts 32°
2026-04-20 19:54 5.63037 62.79039 37045 ft 466 kts 32°
2026-04-20 19:54 5.68251 62.82744 37049 ft 457 kts 32°
2026-04-20 19:55 5.73414 62.86410 37051 ft 450 kts 32°
2026-04-20 19:55 5.78468 62.89999 37053 ft 444 kts 32°
2026-04-20 19:56 5.83463 62.93546 37054 ft 439 kts 32°
2026-04-20 19:56 5.88430 62.97075 37052 ft 434 kts 32°
2026-04-20 19:57 5.93325 63.00554 37054 ft 431 kts 32°
2026-04-20 19:57 5.98203 63.04021 37054 ft 427 kts 31°
2026-04-20 19:58 6.03014 63.07441 37052 ft 424 kts 31°
2026-04-20 19:58 6.07817 63.10856 37052 ft 421 kts 31°
2026-04-20 19:59 6.12568 63.14236 37053 ft 419 kts 31°
2026-04-20 19:59 6.17320 63.17616 37054 ft 416 kts 31°
2026-04-20 20:00 6.22017 63.20959 37055 ft 414 kts 31°
2026-04-20 20:00 6.26713 63.24302 37053 ft 412 kts 31°
2026-04-20 20:01 6.31362 63.27611 37059 ft 411 kts 31°
2026-04-20 20:01 6.36023 63.30930 37049 ft 409 kts 31°
2026-04-20 20:02 6.40633 63.34214 37059 ft 408 kts 31°
2026-04-20 20:02 6.45266 63.37515 37064 ft 406 kts 31°
2026-04-20 20:03 6.49850 63.40781 37062 ft 405 kts 31°
2026-04-20 20:03 6.54437 63.44051 37061 ft 404 kts 31°
2026-04-20 20:04 6.59018 63.47316 37085 ft 409 kts 31°
2026-04-20 20:04 6.63773 63.50700 37082 ft 426 kts 31°
2026-04-20 20:05 6.68675 63.54194 37084 ft 442 kts 31°
2026-04-20 20:05 6.73801 63.57852 37083 ft 457 kts 31°
2026-04-20 20:06 6.79046 63.61598 37079 ft 471 kts 31°
2026-04-20 20:06 6.84432 63.65445 37076 ft 482 kts 31°
2026-04-20 20:07 6.89937 63.69381 37065 ft 485 kts 32°
2026-04-20 20:07 6.95405 63.73287 37060 ft 485 kts 31°
2026-04-20 20:08 7.00928 63.77231 37060 ft 484 kts 31°
2026-04-20 20:08 7.06379 63.81127 37059 ft 482 kts 31°
2026-04-20 20:09 7.11846 63.85035 37059 ft 481 kts 31°
2026-04-20 20:09 7.17281 63.88923 37061 ft 480 kts 31°
2026-04-20 20:10 7.22736 63.92825 37057 ft 480 kts 31°
2026-04-20 20:10 7.28157 63.96704 37061 ft 480 kts 31°
2026-04-20 20:11 7.33617 64.00612 37061 ft 481 kts 31°
2026-04-20 20:11 7.39048 64.04501 37063 ft 482 kts 31°
2026-04-20 20:12 7.44520 64.08420 37060 ft 483 kts 31°
2026-04-20 20:12 7.50007 64.12352 37061 ft 483 kts 31°
2026-04-20 20:13 7.58220 64.18239 37063 ft 484 kts 31°
2026-04-20 20:13 7.63686 64.22159 37061 ft 485 kts 31°
2026-04-20 20:14 7.69192 64.26108 37063 ft 485 kts 31°
2026-04-20 20:14 7.74662 64.30033 37066 ft 485 kts 31°
2026-04-20 20:15 7.80174 64.33990 37068 ft 486 kts 31°
2026-04-20 20:15 7.85648 64.37920 37051 ft 486 kts 31°
2026-04-20 20:16 7.91164 64.41882 37055 ft 486 kts 31°
2026-04-20 20:16 7.96649 64.45823 37054 ft 487 kts 31°
2026-04-20 20:17 8.02178 64.49797 37063 ft 487 kts 31°
2026-04-20 20:17 8.07674 64.53748 37058 ft 487 kts 31°
2026-04-20 20:18 8.13199 64.57722 37063 ft 488 kts 31°
2026-04-20 20:18 8.18695 64.61676 37061 ft 488 kts 31°
2026-04-20 20:19 8.24228 64.65659 37060 ft 488 kts 31°
2026-04-20 20:19 8.29735 64.69624 37061 ft 489 kts 31°
2026-04-20 20:20 8.35276 64.73614 37061 ft 489 kts 31°
2026-04-20 20:20 8.40818 64.77607 37059 ft 489 kts 31°
2026-04-20 20:21 8.46346 64.81591 37056 ft 490 kts 31°
2026-04-20 20:21 8.51904 64.85599 37059 ft 490 kts 31°
2026-04-20 20:22 8.57433 64.89587 37057 ft 491 kts 31°
2026-04-20 20:22 8.62996 64.93601 37057 ft 491 kts 31°
2026-04-20 20:23 8.68537 64.97600 37059 ft 492 kts 31°
2026-04-20 20:23 8.74117 65.01630 37057 ft 492 kts 31°
2026-04-20 20:24 8.79655 65.05630 37055 ft 492 kts 31°
2026-04-20 20:24 8.85228 65.09657 37059 ft 493 kts 31°
2026-04-20 20:25 8.90818 65.13698 37054 ft 493 kts 31°
2026-04-20 20:25 8.96376 65.17717 37054 ft 494 kts 31°
2026-04-20 20:26 9.01949 65.21749 37053 ft 494 kts 31°
2026-04-20 20:26 9.07550 65.25803 37055 ft 495 kts 32°
2026-04-20 20:27 9.13160 65.29865 37056 ft 495 kts 32°
2026-04-20 20:27 9.18739 65.33906 37055 ft 496 kts 32°
2026-04-20 20:28 9.24357 65.37977 37056 ft 496 kts 32°
2026-04-20 20:28 9.29947 65.42029 37056 ft 497 kts 32°
2026-04-20 20:29 9.35575 65.46111 37051 ft 497 kts 32°
2026-04-20 20:29 9.41173 65.50172 37053 ft 498 kts 32°
2026-04-20 20:30 9.46811 65.54266 37053 ft 498 kts 32°
2026-04-20 20:30 9.52427 65.58343 37056 ft 498 kts 32°
2026-04-20 20:31 9.58065 65.62435 37053 ft 499 kts 32°
2026-04-20 20:31 9.63689 65.66519 37052 ft 499 kts 32°
2026-04-20 20:32 9.69343 65.70628 37056 ft 499 kts 32°
2026-04-20 20:32 9.74964 65.74714 37051 ft 500 kts 32°
2026-04-20 20:33 9.80625 65.78833 37053 ft 500 kts 32°
2026-04-20 20:33 9.86257 65.82931 37052 ft 501 kts 32°
2026-04-20 20:34 9.91932 65.87063 37051 ft 501 kts 32°
2026-04-20 20:34 9.97566 65.91166 37051 ft 502 kts 32°
2026-04-20 20:35 10.03253 65.95310 37053 ft 502 kts 32°
2026-04-20 20:35 10.08913 65.99436 37058 ft 503 kts 32°
2026-04-20 20:36 10.14607 66.03589 37051 ft 503 kts 32°
2026-04-20 20:36 10.20271 66.07722 37056 ft 504 kts 32°
2026-04-20 20:37 10.25974 66.11885 37051 ft 504 kts 32°
2026-04-20 20:37 10.31643 66.16025 37050 ft 505 kts 32°
2026-04-20 20:38 10.37355 66.20199 37049 ft 505 kts 32°
2026-04-20 20:38 10.43035 66.24351 37051 ft 505 kts 32°
2026-04-20 20:39 10.48717 66.28506 37053 ft 506 kts 32°
2026-04-20 20:39 10.54439 66.32692 37051 ft 506 kts 32°
2026-04-20 20:40 10.60141 66.36866 37050 ft 507 kts 32°
2026-04-20 20:40 10.65866 66.41059 37052 ft 507 kts 32°
2026-04-20 20:41 10.71561 66.45231 37048 ft 507 kts 32°
2026-04-20 20:41 10.77293 66.49433 37052 ft 508 kts 32°
2026-04-20 20:42 10.83035 66.53644 37053 ft 508 kts 32°
2026-04-20 20:42 10.88750 66.57838 37048 ft 508 kts 32°
2026-04-20 20:43 10.94463 66.62031 37051 ft 509 kts 32°
2026-04-20 20:43 11.00215 66.66256 37053 ft 509 kts 32°
2026-04-20 20:44 11.04507 66.69410 37040 ft 509 kts 32°
2026-04-20 20:44 11.10261 66.73639 37040 ft 509 kts 32°
2026-04-20 20:45 11.15996 66.77857 37068 ft 510 kts 32°
2026-04-20 20:45 11.21758 66.82096 37049 ft 511 kts 32°
2026-04-20 20:46 11.27492 66.86318 37053 ft 512 kts 32°
2026-04-20 20:46 11.33287 66.90586 37051 ft 512 kts 33°
2026-04-20 20:47 11.39032 66.94820 37055 ft 513 kts 33°
2026-04-20 20:47 11.44816 66.99085 37053 ft 513 kts 33°
2026-04-20 20:48 11.50580 67.03337 37053 ft 513 kts 33°
2026-04-20 20:48 11.56371 67.07611 37051 ft 513 kts 33°
2026-04-20 20:49 11.62130 67.11864 37049 ft 514 kts 33°
2026-04-20 20:49 11.67932 67.16151 37047 ft 514 kts 33°
2026-04-20 20:50 11.73691 67.20409 37047 ft 514 kts 33°
2026-04-20 20:50 11.79461 67.24676 37045 ft 514 kts 33°
2026-04-20 20:51 11.85257 67.28966 37046 ft 515 kts 33°
2026-04-20 20:51 11.91066 67.33268 37047 ft 515 kts 33°
2026-04-20 20:52 11.96845 67.37551 37042 ft 516 kts 33°
2026-04-20 20:52 12.02623 67.41914 37045 ft 516 kts 34°
2026-04-20 20:53 12.08355 67.46287 37045 ft 517 kts 34°
2026-04-20 20:53 12.14130 67.50689 37046 ft 517 kts 34°
2026-04-20 20:54 12.19878 67.55062 37043 ft 518 kts 34°
2026-04-20 20:54 12.25673 67.59470 37045 ft 518 kts 34°
2026-04-20 20:55 12.31424 67.63847 37043 ft 519 kts 34°
2026-04-20 20:55 12.37197 67.68245 37045 ft 520 kts 34°
2026-04-20 20:56 12.43010 67.72676 37043 ft 520 kts 34°
2026-04-20 20:56 12.48825 67.77111 37042 ft 521 kts 34°
2026-04-20 20:57 12.54618 67.81531 37047 ft 521 kts 34°
2026-04-20 20:57 12.60411 67.85955 37031 ft 522 kts 35°
2026-04-20 20:58 12.66240 67.90408 37031 ft 522 kts 35°
2026-04-20 20:58 12.72035 67.94839 37036 ft 522 kts 35°
2026-04-20 20:59 12.77867 67.99300 37049 ft 523 kts 35°
2026-04-20 20:59 12.83681 68.03737 37040 ft 523 kts 34°
2026-04-20 21:00 12.89558 68.08158 37043 ft 524 kts 34°
2026-04-20 21:00 12.95411 68.12552 37042 ft 524 kts 34°
2026-04-20 21:01 13.01300 68.16985 37039 ft 525 kts 34°
2026-04-20 21:01 13.07150 68.21398 37044 ft 525 kts 35°
2026-04-20 21:02 13.13050 68.25853 37047 ft 526 kts 35°
2026-04-20 21:02 13.18909 68.30279 37040 ft 527 kts 35°
2026-04-20 21:03 13.24814 68.34742 37039 ft 527 kts 35°
2026-04-20 21:03 13.30730 68.39216 37039 ft 527 kts 35°
2026-04-20 21:04 13.36601 68.43659 37039 ft 527 kts 35°
2026-04-20 21:04 13.42505 68.48130 37039 ft 527 kts 35°
2026-04-20 21:05 13.48377 68.52578 37039 ft 528 kts 35°
2026-04-20 21:05 13.54299 68.57068 37039 ft 528 kts 35°
2026-04-20 21:06 13.60189 68.61537 37044 ft 529 kts 35°
2026-04-20 21:06 13.65116 68.65276 37040 ft 529 kts 35°
2026-04-20 21:07 13.72009 68.70512 37039 ft 529 kts 35°
2026-04-20 21:07 13.76953 68.74270 37039 ft 530 kts 35°
2026-04-20 21:08 13.82887 68.78783 37038 ft 530 kts 35°
2026-04-20 21:08 13.88787 68.83273 37037 ft 530 kts 35°
2026-04-20 21:09 13.94697 68.87773 37038 ft 531 kts 36°
2026-04-20 21:09 14.01614 68.93046 37040 ft 531 kts 36°
2026-04-20 21:10 14.06561 68.96818 37039 ft 531 kts 36°
2026-04-20 21:10 14.13505 69.02044 37042 ft 531 kts 34°
2026-04-20 21:11 14.18518 69.05727 37038 ft 531 kts 34°
2026-04-20 21:11 14.25522 69.10872 37040 ft 531 kts 34°
2026-04-20 21:12 14.30530 69.14571 37036 ft 531 kts 34°
2026-04-20 21:12 14.36551 69.19030 37036 ft 532 kts 34°
2026-04-20 21:13 14.42531 69.23461 37033 ft 532 kts 34°
2026-04-20 21:13 14.48543 69.27918 37032 ft 532 kts 34°
2026-04-20 21:14 14.54526 69.32356 37032 ft 532 kts 34°
2026-04-20 21:14 14.60511 69.36798 37033 ft 532 kts 35°
2026-04-20 21:15 14.66530 69.41269 37033 ft 532 kts 35°
2026-04-20 21:15 14.72524 69.45725 37034 ft 533 kts 35°
2026-04-20 21:16 14.78555 69.50210 37033 ft 533 kts 35°
2026-04-20 21:16 14.84549 69.54672 37034 ft 533 kts 35°
2026-04-20 21:17 14.90577 69.59162 37034 ft 534 kts 35°
2026-04-20 21:17 14.96572 69.63631 37029 ft 534 kts 35°
2026-04-20 21:18 15.02610 69.68135 37029 ft 534 kts 35°
2026-04-20 21:18 15.08606 69.72612 37030 ft 534 kts 35°
2026-04-20 21:19 15.14633 69.77129 37026 ft 535 kts 35°
2026-04-20 21:20 15.23589 69.83973 37028 ft 535 kts 36°
2026-04-20 21:20 15.29592 69.88572 37026 ft 535 kts 36°
2026-04-20 21:21 15.35553 69.93132 37026 ft 536 kts 36°
2026-04-20 21:21 15.41522 69.97697 37029 ft 536 kts 36°
2026-04-20 21:22 15.47524 70.02291 37021 ft 536 kts 36°
2026-04-20 21:22 15.53534 70.06895 37023 ft 536 kts 36°
2026-04-20 21:23 15.59511 70.11478 37027 ft 537 kts 36°
2026-04-20 21:23 15.65523 70.16090 37027 ft 537 kts 36°
2026-04-20 21:24 15.71504 70.20683 37023 ft 537 kts 36°
2026-04-20 21:24 15.77493 70.25284 37026 ft 537 kts 36°
2026-04-20 21:25 15.83506 70.29908 37023 ft 538 kts 36°
2026-04-20 21:25 15.89489 70.34512 37022 ft 538 kts 36°
2026-04-20 21:26 15.95525 70.39160 37023 ft 539 kts 36°
2026-04-20 21:26 16.01524 70.43784 37023 ft 539 kts 36°
2026-04-20 21:27 16.07528 70.48415 37023 ft 539 kts 36°
2026-04-20 21:27 16.13570 70.53079 37021 ft 540 kts 36°
2026-04-20 21:28 16.19577 70.57720 37022 ft 540 kts 36°
2026-04-20 21:28 16.25584 70.62364 37019 ft 540 kts 36°
2026-04-20 21:29 16.31618 70.67033 37022 ft 540 kts 36°
2026-04-20 21:29 16.37614 70.71676 37018 ft 540 kts 36°
2026-04-20 21:30 16.43656 70.76359 37018 ft 540 kts 36°
2026-04-20 21:30 16.49652 70.81010 37021 ft 540 kts 36°
2026-04-20 21:31 16.55687 70.85707 37020 ft 540 kts 36°
2026-04-20 21:31 16.61664 70.90414 37022 ft 540 kts 37°
2026-04-20 21:32 16.67627 70.95127 37021 ft 540 kts 37°
2026-04-20 21:32 16.73635 70.99871 37021 ft 541 kts 37°
2026-04-20 21:33 16.79613 71.04590 37016 ft 541 kts 37°
2026-04-20 21:33 16.85629 71.09342 37016 ft 541 kts 37°
2026-04-20 21:34 16.91604 71.14067 37018 ft 541 kts 37°
2026-04-20 21:34 16.96091 71.17618 37015 ft 541 kts 37°
2026-04-20 21:35 17.02064 71.22348 37015 ft 541 kts 37°
2026-04-20 21:35 17.08039 71.27084 37015 ft 542 kts 37°
2026-04-20 21:36 17.14050 71.31851 37013 ft 542 kts 37°
2026-04-20 21:36 17.20033 71.36601 37014 ft 542 kts 37°
2026-04-20 21:37 17.26062 71.41393 37013 ft 543 kts 37°
2026-04-20 21:37 17.32078 71.46177 37015 ft 543 kts 37°
2026-04-20 21:38 17.38248 71.50629 37014 ft 541 kts 27°
2026-04-20 21:38 17.44922 71.54254 37014 ft 541 kts 25°
2026-04-20 21:39 17.51641 71.57794 36998 ft 541 kts 25°
2026-04-20 21:39 17.58345 71.61381 37016 ft 541 kts 25°
2026-04-20 21:40 17.64987 71.64982 37002 ft 540 kts 25°
2026-04-20 21:40 17.68304 71.66787 36887 ft 535 kts 25°
2026-04-20 21:40 17.71591 71.68576 36517 ft 529 kts 25°
2026-04-20 21:40 17.74840 71.70344 36042 ft 524 kts 25°
2026-04-20 21:41 17.78066 71.72098 35579 ft 520 kts 25°
2026-04-20 21:41 17.81257 71.73833 35175 ft 514 kts 25°
2026-04-20 21:41 17.84418 71.75552 34797 ft 508 kts 25°
2026-04-20 21:41 17.87543 71.77251 34433 ft 502 kts 25°
2026-04-20 21:42 17.90621 71.78927 34103 ft 495 kts 25°
2026-04-20 21:42 17.93658 71.80580 33911 ft 486 kts 25°
2026-04-20 21:42 17.96583 71.82174 33210 ft 474 kts 25°
2026-04-20 21:42 17.99463 71.83745 32504 ft 458 kts 25°
2026-04-20 21:43 18.02242 71.85261 31796 ft 444 kts 25°
2026-04-20 21:43 18.04945 71.86735 31030 ft 432 kts 25°
2026-04-20 21:43 18.07590 71.88177 30204 ft 424 kts 25°
2026-04-20 21:43 18.10190 71.89594 29265 ft 417 kts 25°
2026-04-20 21:44 18.12737 71.90982 28302 ft 409 kts 25°
2026-04-20 21:44 18.15242 71.92349 27355 ft 402 kts 25°
2026-04-20 21:44 18.17704 71.93692 26475 ft 395 kts 25°
2026-04-20 21:44 18.20128 71.95016 25606 ft 389 kts 25°
2026-04-20 21:45 18.22509 71.96316 24786 ft 382 kts 25°
2026-04-20 21:45 18.24816 71.97577 23984 ft 376 kts 26°
2026-04-20 21:45 18.27119 71.98836 23167 ft 370 kts 26°
2026-04-20 21:45 18.29382 72.00073 22237 ft 364 kts 26°
2026-04-20 21:46 18.31612 72.01293 21363 ft 358 kts 26°
2026-04-20 21:46 18.33801 72.02491 20490 ft 352 kts 26°
2026-04-20 21:46 18.35961 72.03673 19637 ft 348 kts 26°
2026-04-20 21:46 18.38088 72.04838 18832 ft 343 kts 27°
2026-04-20 21:47 18.40195 72.05992 17975 ft 340 kts 27°
2026-04-20 21:47 18.42274 72.07144 17058 ft 336 kts 31°
2026-04-20 21:47 18.44072 72.08666 16121 ft 330 kts 47°
2026-04-20 21:47 18.45610 72.10409 15326 ft 327 kts 49°
2026-04-20 21:48 18.47125 72.12160 14608 ft 321 kts 49°
2026-04-20 21:48 18.48620 72.13888 13883 ft 317 kts 49°
2026-04-20 21:48 18.50102 72.15591 13105 ft 314 kts 49°
2026-04-20 21:48 18.51599 72.17303 12549 ft 319 kts 49°
2026-04-20 21:49 18.53100 72.19011 12331 ft 315 kts 49°
2026-04-20 21:49 18.54578 72.20686 12135 ft 310 kts 49°
2026-04-20 21:49 18.56040 72.22340 11880 ft 307 kts 49°
2026-04-20 21:49 18.57498 72.23988 11604 ft 306 kts 49°
2026-04-20 21:50 18.58946 72.25624 11306 ft 305 kts 49°
2026-04-20 21:50 18.60372 72.27235 11039 ft 304 kts 49°
2026-04-20 21:50 18.61810 72.28859 10762 ft 302 kts 49°
2026-04-20 21:50 18.63241 72.30476 10498 ft 301 kts 49°
2026-04-20 21:51 18.64667 72.32087 10232 ft 299 kts 49°
2026-04-20 21:51 18.66083 72.33687 9979 ft 298 kts 49°
2026-04-20 21:51 18.67482 72.35268 9887 ft 291 kts 49°
2026-04-20 21:51 18.68868 72.36836 9831 ft 294 kts 49°
2026-04-20 21:52 18.70272 72.38424 9831 ft 298 kts 49°
2026-04-20 21:52 18.71673 72.40010 9828 ft 299 kts 49°
2026-04-20 21:52 18.73090 72.41613 9818 ft 298 kts 49°
2026-04-20 21:52 18.74500 72.43208 9815 ft 297 kts 49°
2026-04-20 21:53 18.75904 72.44798 9812 ft 296 kts 49°
2026-04-20 21:53 18.77308 72.46388 9814 ft 295 kts 49°
2026-04-20 21:53 18.78707 72.47972 9810 ft 295 kts 49°
2026-04-20 21:53 18.80107 72.49558 9813 ft 295 kts 49°
2026-04-20 21:54 18.81506 72.51144 9813 ft 296 kts 49°
2026-04-20 21:54 18.82203 72.51935 9817 ft 296 kts 49°
2026-04-20 21:54 18.83613 72.53534 9818 ft 296 kts 49°
2026-04-20 21:54 18.85002 72.55110 9822 ft 297 kts 49°